Location: Kosice
(0.0000°N, 21.2500°E)
Time: 18:59:46
(UTC+01:00)

Cosmos 1680 Rocket - Pass Details

Date: 24 January 2021
Orbit: 761 x 780 km, 74.1° (Epoch: 01 March)

Event Time Altitude Azimuth Distance (km) Brightness Sun altitude
Rises 18:47:24 0° 356° (N) 3,205 6.6 -14.2°
Reaches altitude 10° 18:49:48 10° 360° (N) 2,281 5.8 -14.8°
Maximum altitude 18:54:52 56° 78° (ENE) 897 3.5 -16.0°
Drops below altitude 10° 18:59:56 10° 156° (SSE) 2,292 5.9 -17.2°
Sets 19:02:21 0° 160° (SSE) 3,221 6.7 -17.7°
